Terminal Aerodrome Forecast
Issued by NWS

Home | Current Version | Previous Version | Text Only | Print | Product List | Glossary On
Versions: 1 2 3 4 5 6 7 8 9 10 11 12 13 14 15 16 17 18 19 20 21 22 23 24 25 26 27 28 29 30 31 32 33 34
000
FTUS46 KSGX 210300 AAA
TAFSAN
TAF AMD
KSAN 210308Z 2103/2206 VRB03KT P6SM OVC018
     FM211700 VRB04KT P6SM SCT020
     FM212000 29009KT P6SM SKC
     FM220100 VRB04KT P6SM FEW014
     FM220500 VRB03KT P6SM BKN013=

USA.gov is the U.S. government's official web portal to all federal, state and local government web resources and services.